Location: Hollywood
(37.6123°N, 80.4440°W)
Time: 08:35:39
(UTC+00:00)

BlueWalker 3 - Visible Passes

Search period start: 12 June 2026 00:00
Search period end: 22 June 2026 00:00
Orbit: 447 x 456 km, 53.2° (Epoch: 11 June)

Date Brightness Start Highest point End Pass type
(mag) Time Alt. Az. Time Alt. Az. Time Alt. Az.
12 Jun 1.8 01:38:15 10° NW 01:41:47 72° SW 01:44:31 16° SE visible
14 Jun 4.2 02:02:42 10° W 02:04:30 13° SW 02:06:17 10° SSW visible
15 Jun 3.9 01:24:53 10° W 01:27:27 19° SW 01:30:01 10° S visible
